Wind_Speed
32 35 38 44 10 12 14 19 22 22 26 31 29 25 43 13 23 27 26 29 31 31 30 30 29 29 29 30 29 26 18 16 16 18 17 19 18 17 15 14 13 12 13 12 12
31 34 38 42 5 7 15 17 20 20 21 23 23 21 29 15 24 28 30 30 31 32 29 29 30 30 30 29 29 24 19 17 15 18 17 18 18 16 14 13 13 14 13 13 13
32 32 37 32 11 9 14 18 17 18 19 16 17 21 23 27 26 25 23 25 27 29 30 27 27 29 29 29 28 24 17 14 15 18 16 18 17 15 14 14 14 14 15 15 15
30 30 36 30 17 16 17 18 16 14 14 15 17 24 20 18 22 24 21 21 23 24 28 27 28 29 28 29 27 20 15 13 15 17 18 17 17 15 15 14 14 13 12 14 16
33 32 33 37 20 24 20 17 13 12 13 14 15 21 20 13 19 23 22 22 23 22 24 24 25 27 27 26 25 16 14 14 15 17 17 16 16 16 15 14 13 13 13 14 15
37 33 33 31 29 27 30 25 19 13 10 8 11 16 21 10 25 19 21 21 22 21 23 24 24 20 22 23 22 16 14 13 15 16 15 14 15 15 15 15 15 16 16 16 17
43 40 33 43 49 42 34 30 22 18 18 12 12 13 23 21 19 20 20 19 20 21 21 22 21 18 20 20 20 16 16 15 15 15 14 14 15 16 16 16 16 17 18 18 19
44 38 34 30 30 32 37 27 21 17 17 19 21 10 28 28 22 20 19 19 20 20 19 21 22 13 19 16 18 13 14 13 14 14 14 14 14 14 17 18 18 19 20 20 19
46 47 33 29 31 31 28 30 23 18 18 18 18 24 32 27 24 21 19 20 20 19 17 19 19 13 16 12 16 12 10 14 10 13 15 15 13 14 16 18 19 19 20 21 21
38 39 43 30 24 28 30 34 33 32 25 28 24 24 31 26 23 22 19 18 18 17 16 16 16 16 16 15 12 13 8 11 11 10 13 15 18 16 18 20 20 21 23 24 24
33 33 39 38 27 23 20 24 30 28 25 25 29 35 29 26 24 22 19 18 17 16 15 14 14 16 15 12 8 8 9 7 7 10 14 17 21 17 18 24 24 24 25 27 28
24 25 27 34 30 23 17 11 24 34 35 31 29 27 24 22 22 20 19 18 16 16 14 15 13 13 12 10 7 6 5 5 8 11 15 19 24 21 22 25 26 28 29 30 31
20 19 20 18 21 29 24 27 31 34 32 25 23 22 21 17 19 19 16 18 16 14 12 11 11 10 8 6 5 4 4 5 8 11 17 22 29 24 21 22 24 25 25 23 23
20 17 16 14 12 13 16 22 25 19 20 17 16 16 18 18 16 14 14 15 16 12 11 7 8 7 6 5 5 4 5 6 9 10 8 14 10 29 23 19 18 18 18 18 17
24 19 15 13 11 7 6 5 4 2 5 7 15 15 14 5 16 13 11 11 12 15 9 8 9 8 6 5 4 4 6 8 12 14 17 16 10 7 23 19 16 16 15 13 13
24 20 17 13 10 8 7 6 6 3 5 5 8 11 14 12 12 13 11 10 11 10 6 8 11 9 8 7 6 6 7 10 13 12 4 7 8 11 9 9 11 11 9 9 5
22 21 18 14 11 9 6 5 4 8 10 9 13 11 10 11 10 12 12 11 5 6 5 6 8 7 7 6 6 6 4 4 4 2 4 4 9 17 14 16 15 10 8 6 2
20 20 19 14 14 9 5 2 6 7 7 13 13 12 10 9 9 9 8 5 6 5 9 6 5 8 8 9 6 6 6 3 5 2 5 10 11 6 11 10 12 12 10 9 6
18 16 18 17 9 11 9 5 7 12 14 13 10 6 7 3 5 5 5 3 5 4 3 5 4 9 6 9 8 5 6 5 3 4 4 7 13 20 17 17 12 9 10 13 12
16 11 13 16 15 10 7 14 11 15 14 10 3 4 1 3 4 3 3 4 4 6 8 4 3 9 12 12 13 11 6 4 5 1 4 8 13 15 9 7 7 8 6 7 8
13 7 10 10 13 11 11 17 15 14 10 3 2 3 3 2 1 1 1 1 4 5 5 4 6 4 12 10 12 14 13 9 6 5 2 4 7 4 6 5 4 4 6 7 10
13 7 8 7 8 9 12 10 9 6 2 3 4 4 4 1 2 2 2 1 3 4 5 5 5 6 7 10 11 14 15 15 7 5 6 3 17 10 6 7 8 7 11 16 24
14 9 8 6 4 7 7 7 8 6 5 4 1 2 3 4 2 2 3 4 4 4 3 3 4 4 4 9 15 18 21 20 20 17 15 5 10 3 3 5 7 13 19 26 34
17 11 9 6 5 3 2 2 2 2 2 2 2 2 2 4 4 2 4 4 5 6 7 8 10 12 11 11 14 16 17 15 23 16 18 38 40 29 23 21 27 32 36 35 35
20 13 11 6 4 2 2 3 4 3 4 3 3 5 4 5 5 7 7 8 9 10 11 11 14 16 19 21 24 29 32 32 36 37 32 36 34 39 33 29 16 15 21 26 26
18 17 13 8 6 4 3 3 5 8 8 6 7 9 9 10 9 10 10 10 12 13 13 16 16 19 31 27 24 28 29 31 40 46 51 50 49 23 16 21 19 18 20 21 22
18 16 14 10 6 5 5 6 5 6 8 11 12 12 13 12 15 17 19 18 19 20 20 21 20 17 13 15 25 29 6 8 18 32 37 44 19 21 6 7 12 13 14 17 18
Wind_Direction
351 351 351 1 346 193 189 183 186 193 194 204 205 202 205 181 171 168 170 171 172 174 172 174 175 175 179 183 186 192 188 189 189 189 195 192 192 195 201 207 215 223 236 248 255
355 353 355 3 17 146 176 178 183 181 187 199 192 195 215 186 159 166 172 171 172 171 170 173 174 173 178 183 187 190 191 188 190 190 194 196 197 203 208 217 228 239 245 246 243
1 358 9 11 74 116 154 167 174 178 185 192 187 182 191 208 166 164 171 172 170 172 167 170 174 175 179 179 187 191 191 182 181 189 192 197 205 211 219 229 238 245 247 247 250
11 16 17 33 90 98 137 148 156 161 169 188 184 187 186 206 161 161 165 171 169 172 167 166 170 175 177 180 186 189 185 178 182 191 199 204 213 221 227 239 249 252 250 248 253
27 32 28 53 82 98 111 123 133 139 156 187 190 189 194 201 153 156 161 167 167 169 165 164 172 175 177 181 183 182 180 181 185 194 203 210 218 228 238 241 249 255 256 257 260
41 42 41 30 96 114 102 101 113 123 144 156 182 193 182 165 141 147 154 162 165 164 163 163 171 173 180 180 184 183 180 177 184 196 204 210 219 231 242 250 253 258 261 264 265
40 49 45 62 75 83 92 97 108 113 116 130 168 156 180 139 129 140 146 153 156 161 161 161 166 175 175 176 179 179 184 182 190 201 211 223 233 242 249 253 257 259 262 264 267
35 36 60 76 78 81 79 84 94 94 115 130 156 141 147 119 121 131 138 145 151 155 158 160 167 169 176 172 176 175 186 191 203 212 223 232 240 246 253 257 263 266 270 273 276
44 38 46 79 81 81 85 96 69 86 101 141 150 146 116 121 121 129 135 145 151 151 150 157 165 165 169 170 176 176 192 203 214 226 237 240 246 247 256 261 265 269 272 278 282
40 34 43 59 94 96 113 107 94 97 112 128 146 124 118 120 123 124 131 142 147 147 148 154 160 165 165 169 181 187 177 202 218 233 247 252 257 255 264 265 265 269 274 276 278
43 39 40 49 77 90 106 102 97 79 94 106 119 122 118 125 128 127 129 133 141 143 143 146 154 156 158 164 170 178 199 214 233 250 261 261 265 258 261 269 273 273 273 274 274
47 49 45 38 66 96 80 113 110 103 99 102 109 114 122 129 129 134 140 140 142 145 148 145 155 150 156 163 164 172 198 226 253 267 276 277 271 270 266 269 273 275 274 273 271
43 48 49 52 41 71 80 90 106 110 103 103 108 114 119 123 135 137 141 146 144 150 152 162 151 153 157 167 183 200 231 249 267 283 287 293 290 284 280 280 275 271 268 267 267
35 38 44 53 68 70 83 84 95 92 86 85 98 105 115 128 126 132 145 153 149 153 152 152 152 162 175 186 201 218 243 271 284 296 283 298 286 288 294 286 278 273 268 267 269
34 35 34 38 51 60 66 111 88 71 70 78 95 114 121 115 135 132 144 155 158 156 168 162 163 172 181 191 207 238 260 276 284 289 295 287 271 293 294 284 274 267 269 272 281
33 32 32 32 23 34 30 30 26 79 56 103 112 115 120 128 132 127 132 141 146 145 142 162 169 174 190 199 216 241 270 289 288 288 282 263 246 287 275 279 275 268 275 282 266
24 33 31 30 31 21 7 8 34 58 123 126 125 123 123 127 130 132 138 145 147 157 158 160 180 194 204 221 241 252 275 313 339 8 236 266 270 265 275 276 274 261 268 226 261
15 22 33 27 26 26 5 38 67 117 126 138 128 126 123 122 132 142 148 145 159 164 164 177 190 204 212 217 226 230 225 196 220 257 290 278 248 271 290 280 258 252 239 218 302
13 18 26 31 38 40 47 70 92 113 131 131 130 126 132 106 146 154 172 185 183 198 187 200 228 213 221 222 220 227 218 223 261 296 299 251 272 291 275 274 256 241 261 247 290
10 15 28 30 42 48 89 98 113 123 129 127 99 140 208 168 150 153 165 198 212 216 213 225 236 217 220 224 225 223 218 204 219 221 266 271 280 270 288 290 245 253 255 258 285
10 19 27 36 43 60 93 108 122 134 144 145 117 140 136 159 237 203 303 297 230 232 234 250 244 253 230 238 242 228 223 221 226 227 210 302 266 301 280 271 203 213 255 264 296
16 39 31 32 47 61 86 101 121 138 150 149 133 134 146 159 172 198 174 267 218 234 253 254 278 261 264 251 243 235 238 236 230 219 216 249 280 290 256 202 214 253 300 302 303
24 35 26 27 53 68 86 101 118 121 117 125 105 147 168 171 177 215 213 222 219 238 272 285 273 292 270 253 252 248 250 247 241 252 237 197 260 261 260 228 271 281 288 293 292
19 22 24 62 40 32 65 107 130 142 141 138 151 187 237 243 251 247 238 251 251 260 271 285 258 247 255 281 284 273 276 265 245 241 245 245 271 266 271 283 293 293 290 288 286
14 15 20 357 353 334 289 270 260 257 251 257 248 234 238 251 259 263 263 266 274 279 281 280 276 277 279 284 284 281 273 265 255 253 245 274 273 291 306 306 304 297 287 286 290
2 6 11 20 1 332 300 273 258 255 260 263 263 264 264 261 262 269 264 265 272 271 267 271 276 285 288 294 284 280 274 268 261 258 259 266 279 306 314 313 311 307 307 309 305
346 352 357 355 354 324 305 284 269 264 269 268 265 266 274 279 270 269 273 272 271 272 272 271 275 290 288 294 299 294 280 284 283 268 268 262 303 297 306 339 344 337 329 324 320
Height
3024 3014 3004 2992 2983 2987 2991 2997 3002 3008 3012 3016 3025 3030 3029 3034 3045 3053 3060 3065 3071 3078 3083 3090 3097 3103 3110 3115 3121 3125 3130 3133 3137 3141 3145 3147 3151 3153 3156 3159 3160 3162 3163 3164 3165
3022 3014 3002 2993 2985 2988 2993 2998 3003 3010 3014 3017 3024 3032 3029 3035 3045 3052 3059 3064 3071 3076 3083 3090 3096 3102 3109 3115 3121 3124 3128 3132 3137 3141 3144 3147 3150 3153 3156 3156 3158 3160 3160 3161 3162
3022 3014 3004 2993 2990 2991 2994 3000 3007 3012 3017 3020 3025 3029 3037 3042 3049 3055 3063 3068 3073 3079 3083 3090 3098 3103 3109 3114 3120 3124 3128 3132 3136 3140 3143 3147 3150 3151 3153 3155 3156 3158 3158 3160 3160
3023 3016 3008 2995 2995 2995 3000 3005 3011 3016 3022 3024 3028 3032 3036 3045 3055 3057 3065 3071 3076 3082 3085 3091 3097 3103 3109 3114 3119 3125 3128 3132 3136 3140 3143 3146 3148 3150 3151 3153 3154 3155 3156 3157 3157
3028 3022 3015 3004 3003 3004 3007 3012 3017 3022 3025 3028 3032 3037 3044 3051 3055 3060 3067 3073 3079 3084 3090 3094 3100 3105 3109 3114 3121 3125 3129 3132 3136 3139 3142 3145 3146 3149 3149 3151 3152 3153 3154 3154 3155
3035 3028 3022 3015 3011 3010 3014 3019 3023 3026 3030 3034 3038 3043 3051 3055 3059 3064 3070 3076 3081 3087 3092 3096 3101 3108 3112 3116 3122 3125 3129 3132 3135 3138 3141 3143 3145 3147 3148 3148 3149 3150 3151 3151 3151
3042 3037 3030 3026 3022 3015 3023 3027 3030 3032 3037 3040 3043 3046 3053 3061 3065 3069 3075 3080 3085 3091 3095 3099 3104 3110 3113 3118 3122 3125 3130 3132 3135 3137 3139 3141 3144 3145 3146 3146 3146 3146 3147 3147 3147
3050 3044 3040 3036 3035 3035 3036 3038 3037 3039 3041 3044 3049 3054 3060 3066 3070 3076 3079 3084 3089 3093 3098 3101 3106 3111 3115 3118 3122 3126 3130 3131 3134 3136 3138 3140 3141 3142 3143 3143 3143 3144 3143 3143 3143
3060 3053 3047 3045 3043 3042 3042 3044 3044 3041 3044 3048 3056 3062 3065 3071 3075 3080 3084 3088 3092 3096 3100 3104 3109 3112 3116 3118 3123 3127 3128 3130 3133 3134 3135 3138 3138 3139 3139 3139 3140 3140 3139 3139 3139
3068 3063 3058 3053 3052 3051 3050 3051 3050 3053 3054 3056 3062 3069 3073 3077 3081 3084 3089 3092 3096 3099 3103 3107 3110 3113 3116 3119 3124 3126 3127 3129 3131 3133 3133 3134 3134 3136 3136 3135 3136 3136 3135 3134 3134
3076 3070 3065 3061 3058 3058 3059 3058 3058 3060 3061 3063 3070 3072 3077 3082 3086 3089 3093 3096 3100 3103 3107 3110 3112 3114 3117 3119 3123 3125 3126 3128 3129 3130 3131 3131 3129 3132 3133 3131 3131 3131 3130 3130 3129
3080 3080 3077 3072 3067 3066 3067 3065 3064 3066 3069 3074 3077 3080 3083 3086 3089 3092 3096 3100 3102 3105 3109 3112 3113 3116 3118 3119 3122 3124 3125 3127 3129 3129 3130 3127 3125 3126 3127 3126 3125 3124 3123 3122 3121
3083 3082 3081 3081 3078 3075 3076 3074 3072 3071 3074 3082 3084 3086 3089 3092 3093 3095 3099 3101 3104 3106 3110 3112 3115 3116 3118 3119 3122 3123 3125 3127 3128 3127 3126 3123 3118 3119 3119 3118 3117 3116 3115 3114 3114
3088 3085 3084 3083 3085 3085 3083 3082 3080 3080 3081 3090 3091 3092 3093 3094 3097 3098 3100 3104 3105 3109 3112 3114 3115 3117 3119 3121 3122 3123 3125 3125 3125 3126 3125 3123 3114 3110 3111 3109 3108 3108 3108 3108 3108
3092 3089 3086 3084 3084 3083 3085 3084 3083 3083 3088 3098 3095 3096 3096 3098 3099 3101 3103 3104 3106 3108 3113 3114 3115 3117 3119 3120 3121 3123 3123 3123 3123 3122 3121 3118 3117 3103 3104 3103 3103 3103 3103 3103 3104
3096 3092 3089 3086 3085 3084 3083 3082 3083 3085 3093 3098 3097 3098 3099 3099 3101 3103 3104 3107 3109 3110 3111 3113 3114 3116 3118 3119 3120 3121 3122 3122 3120 3120 3118 3115 3116 3100 3098 3099 3099 3099 3100 3100 3100
3099 3096 3092 3090 3087 3085 3084 3084 3085 3086 3099 3101 3100 3100 3101 3103 3104 3104 3105 3108 3110 3113 3113 3114 3115 3116 3117 3119 3120 3121 3122 3121 3122 3121 3117 3114 3113 3097 3096 3096 3096 3097 3097 3098 3099
3101 3099 3096 3093 3090 3087 3086 3087 3086 3094 3096 3099 3101 3102 3104 3104 3106 3107 3109 3110 3110 3111 3112 3113 3117 3116 3117 3118 3119 3119 3121 3121 3125 3123 3117 3112 3102 3091 3092 3092 3092 3094 3095 3096 3097
3102 3100 3098 3095 3093 3091 3090 3088 3093 3096 3100 3102 3104 3105 3105 3106 3108 3108 3109 3110 3111 3111 3114 3114 3115 3115 3116 3117 3119 3118 3119 3121 3120 3119 3119 3104 3094 3090 3088 3088 3089 3091 3092 3094 3094
3103 3101 3099 3097 3095 3094 3094 3091 3095 3099 3101 3103 3105 3106 3107 3108 3108 3109 3110 3110 3111 3112 3113 3114 3114 3113 3114 3115 3116 3116 3118 3119 3119 3120 3116 3099 3092 3085 3086 3086 3087 3089 3091 3091 3091
3103 3101 3101 3099 3098 3097 3097 3097 3099 3100 3102 3104 3104 3105 3107 3108 3109 3110 3111 3112 3112 3112 3113 3113 3114 3114 3113 3113 3113 3114 3114 3116 3117 3115 3112 3108 3088 3085 3085 3085 3086 3087 3088 3087 3086
3104 3103 3102 3101 3103 3100 3099 3100 3101 3103 3104 3104 3104 3105 3106 3108 3109 3110 3111 3112 3112 3113 3113 3113 3112 3111 3112 3111 3111 3111 3111 3113 3113 3111 3109 3109 3086 3081 3082 3083 3084 3084 3084 3083 3081
3106 3104 3103 3102 3103 3102 3102 3102 3102 3104 3104 3106 3107 3107 3108 3108 3110 3110 3110 3111 3111 3112 3112 3112 3112 3111 3109 3111 3109 3108 3107 3108 3109 3107 3102 3105 3084 3081 3081 3081 3082 3082 3081 3078 3074
3108 3106 3104 3104 3104 3104 3104 3104 3105 3105 3105 3105 3106 3107 3108 3109 3109 3109 3110 3110 3110 3110 3110 3110 3108 3108 3107 3106 3106 3104 3103 3103 3104 3101 3094 3080 3076 3079 3082 3081 3080 3078 3074 3070 3066
3110 3108 3105 3105 3104 3104 3105 3105 3105 3105 3106 3106 3106 3106 3107 3107 3107 3107 3108 3108 3108 3108 3108 3107 3104 3103 3102 3101 3099 3095 3094 3094 3091 3090 3086 3075 3073 3068 3075 3073 3071 3069 3067 3063 3062
3111 3109 3106 3104 3104 3104 3104 3104 3104 3105 3105 3105 3105 3106 3106 3106 3107 3106 3106 3106 3105 3104 3104 3103 3101 3097 3093 3095 3090 3082 3080 3079 3078 3077 3073 3071 3064 3073 3071 3068 3065 3062 3060 3058 3056
3111 3108 3107 3105 3103 3102 3103 3103 3102 3102 3103 3103 3103 3103 3103 3105 3103 3103 3102 3102 3101 3101 3100 3099 3097 3096 3087 3086 3082 3073 3066 3066 3065 3065 3066 3065 3062 3066 3066 3064 3061 3059 3057 3054 3052